CW2057 Weather Reports


Display with metric or nautical units.
time (UTC)temp
F
wind
direction
speed
MPH
gust
MPH
rain 1hr
in
rain 24hr
in
rain mn
in
humidity
%
barometer
mb
20260902050149 79 77 0.0 0.0 0.00 0.00 0.00 76 1018.1
20260902045618 79 50 0.0 0.0 0.00 0.00 0.00 77 1018.0
20260902045126 79 47 0.0 0.0 0.00 0.00 0.00 78 1018.1
20260902044614 79 47 0.0 0.0 0.00 0.00 0.00 79 1018.2
20260902044123 79 45 0.0 0.0 0.00 0.00 0.00 79 1018.1
20260902043633 79 45 0.0 0.0 0.00 0.00 0.00 79 1017.8
20260902043121 79 45 0.0 0.0 0.00 0.00 0.00 79 1017.8
20260902042631 79 45 0.0 0.0 0.00 0.00 0.00 79 1017.8
20260902042119 80 45 0.0 0.0 0.00 0.00 0.00 78 1017.7
20260902041627 79 45 0.0 0.0 0.00 0.00 0.00 79 1017.7
20260902041115 79 45 0.0 0.0 0.00 0.00 0.00 78 1017.6
20260902040626 79 45 0.0 0.0 0.00 0.00 0.00 79 1017.7
20260902040114 79 90 0.0 0.0 0.00 0.00 0.00 79 1017.6
20260902035643 79 90 0.0 0.0 0.00 0.00 0.00 79 1017.4
20260902035130 79 90 0.0 2.0 0.00 0.00 0.00 79 1017.3
20260902034619 79 90 0.0 2.0 0.00 0.00 0.00 80 1017.1
20260902034128 79 270 0.0 0.0 0.00 0.00 0.00 80 1016.8
20260902033616 79 69 0.0 0.0 0.00 0.00 0.00 79 1016.9
20260902033125 79 322 0.0 0.0 0.00 0.00 0.00 79 1016.5
20260902032613 80 322 0.0 0.0 0.00 0.00 0.00 79 1016.6
20260902032123 80 322 0.0 0.0 0.00 0.00 0.00 77 1016.6
20260902031628 81 322 0.0 0.0 0.00 0.00 0.00 77 1016.3
20260902031118 80 322 0.0 0.0 0.00 0.00 0.00 77 1016.4
20260902030626 80 322 0.0 0.0 0.00 0.00 0.00 77 1016.3
20260902030116 81 322 0.0 0.0 0.00 0.00 0.00 76 1016.3
20260902025626 81 322 0.0 0.0 0.00 0.00 0.00 75 1016.2
20260902025115 82 322 0.0 0.0 0.00 0.00 0.00 74 1016.0
20260902024644 82 322 0.0 0.0 0.00 0.00 0.00 73 1015.9
20260902024132 82 309 0.0 0.0 0.00 0.00 0.00 73 1015.8
20260902023619 82 309 0.0 2.0 0.00 0.00 0.00 72 1015.7
20260902023128 82 322 0.0 4.0 0.00 0.00 0.00 72 1015.6
20260902022614 83 315 1.0 4.0 0.00 0.00 0.00 72 1015.6
20260902022124 83 284 0.0 0.0 0.00 0.00 0.00 72 1015.8
20260902021633 83 293 0.0 2.0 0.00 0.00 0.00 71 1015.9
20260902021123 83 280 0.0 2.0 0.00 0.00 0.00 70 1016.0
20260902020632 83 315 0.0 0.0 0.00 0.00 0.00 70 1016.0
20260902020142 84 312 0.0 1.0 0.00 0.00 0.00 70 1016.0
20260902015631 84 318 0.0 1.0 0.00 0.00 0.00 70 1015.9
20260902015141 84 333 0.0 1.0 0.00 0.00 0.00 69 1015.9
20260902014624 84 334 0.0 3.0 0.00 0.00 0.00 69 1015.8
20260902014114 84 320 0.0 3.0 0.00 0.00 0.00 69 1015.8
20260902013623 85 338 0.0 3.0 0.00 0.00 0.00 68 1015.8
20260902013131 85 319 0.0 9.0 0.00 0.00 0.00 68 1015.7
20260902012621 85 305 2.0 9.0 0.00 0.00 0.00 69 1015.6
20260902012129 85 286 0.0 4.0 0.00 0.00 0.00 69 1015.5
20260902011619 85 334 1.0 7.0 0.00 0.00 0.00 69 1015.5
20260902011128 85 312 2.0 4.0 0.00 0.00 0.00 70 1015.5
20260902010618 85 328 1.0 3.0 0.00 0.00 0.00 70 1015.5
20260902010128 85 294 1.0 2.0 0.00 0.00 0.00 70 1015.4
20260902005617 85 277 0.0 3.0 0.00 0.00 0.00 69 1015.4
20260902005125 85 311 0.0 3.0 0.00 0.00 0.00 69 1015.4
20260902004634 85 295 1.0 4.0 0.00 0.00 0.00 69 1015.4
20260902004123 85 311 0.0 4.0 0.00 0.00 0.00 70 1015.3
20260902003632 86 306 1.0 4.0 0.00 0.00 0.00 70 1015.1
20260902003142 86 290 1.0 4.0 0.00 0.00 0.00 69 1015.0
20260902002650 86 291 1.0 4.0 0.00 0.00 0.00 69 1014.9
20260902002117 86 276 1.0 7.0 0.00 0.00 0.00 68 1014.8
20260902001622 87 308 2.0 7.0 0.00 0.00 0.00 68 1014.8
20260902001151 87 313 1.0 6.0 0.00 0.00 0.00 68 1014.5
20260902000638 87 291 2.0 6.0 0.00 0.00 0.00 67 1014.4
20260902000127 87 308 2.0 6.0 0.00 0.00 0.00 67 1014.4
20260901235616 87 286 1.0 5.0 0.00 0.00 0.00 67 1014.4
20260901235125 87 254 2.0 5.0 0.00 0.00 0.00 67 1014.3
20260901234614 87 316 1.0 5.0 0.00 0.00 0.00 67 1014.5
20260901234123 87 314 1.0 5.0 0.00 0.00 0.00 68 1014.4
20260901233631 88 283 1.0 3.0 0.00 0.00 0.00 68 1014.5
20260901233140 88 303 0.0 3.0 0.00 0.00 0.00 68 1014.5
20260901232628 88 294 0.0 0.0 0.00 0.00 0.00 68 1014.5
20260901232116 89 294 0.0 0.0 0.00 0.00 0.00 67 1014.4
20260901231625 89 294 0.0 0.0 0.00 0.00 0.00 67 1014.5
20260901231114 89 294 0.0 2.0 0.00 0.00 0.00 66 1014.4
20260901230622 89 270 0.0 2.0 0.00 0.00 0.00 65 1014.5
20260901230131 89 298 0.0 0.0 0.00 0.00 0.00 66 1014.5
20260901225621 89 298 0.0 0.0 0.00 0.00 0.00 65 1014.7
20260901225124 90 298 0.0 1.0 0.00 0.00 0.00 65 1014.5
20260901224614 90 289 0.0 1.0 0.00 0.00 0.00 64 1014.5
20260901224124 90 288 0.0 1.0 0.00 0.00 0.00 64 1014.6
20260901223633 90 288 0.0 4.0 0.00 0.00 0.00 62 1014.6
20260901223142 90 282 1.0 6.0 0.00 0.00 0.00 62 1014.6
20260901222630 91 274 2.0 6.0 0.00 0.00 0.00 61 1014.5
20260901222120 91 311 0.0 7.0 0.00 0.00 0.00 61 1014.7
20260901221628 91 310 1.0 7.0 0.00 0.00 0.00 60 1014.7
20260901221117 92 309 1.0 5.0 0.00 0.00 0.00 60 1014.8
20260901220626 92 255 1.0 4.0 0.00 0.00 0.00 60 1014.7
20260901220134 92 289 2.0 6.0 0.00 0.00 0.00 59 1014.8
20260901215622 92 305 3.0 8.0 0.00 0.00 0.00 59 1014.8
20260901215131 93 333 2.0 8.0 0.00 0.00 0.00 58 1014.9
20260901214620 93 309 4.0 8.0 0.00 0.00 0.00 58 1014.9
20260901214128 93 320 2.0 5.0 0.00 0.00 0.00 59 1014.8
20260901213617 93 278 1.0 6.0 0.00 0.00 0.00 58 1014.8
20260901213126 93 293 1.0 6.0 0.00 0.00 0.00 58 1014.8
20260901212614 93 300 3.0 6.0 0.00 0.00 0.00 57 1014.8
20260901212124 93 270 3.0 5.0 0.00 0.00 0.00 58 1015.0
20260901211629 93 272 2.0 7.0 0.00 0.00 0.00 58 1015.0
20260901211117 93 217 3.0 7.0 0.00 0.00 0.00 57 1015.1
20260901210626 93 284 2.0 5.0 0.00 0.00 0.00 57 1015.1
20260901210116 93 290 1.0 10.0 0.00 0.00 0.00 57 1015.1
20260901205624 94 242 3.0 10.0 0.00 0.00 0.00 56 1015.1
20260901205133 94 322 4.0 8.0 0.00 0.00 0.00 57 1015.2
20260901204622 94 286 2.0 7.0 0.00 0.00 0.00 57 1015.1
20260901204130 94 324 0.0 8.0 0.00 0.00 0.00 57 1015.1
20260901203638 94 319 3.0 8.0 0.00 0.00 0.00 56 1015.2
20260901203126 93 308 3.0 9.0 0.00 0.00 0.00 56 1015.2
20260901202634 93 290 1.0 9.0 0.00 0.00 0.00 58 1015.3
20260901202123 93 326 4.0 11.0 0.00 0.00 0.00 57 1015.4
20260901201633 93 357 2.0 11.0 0.00 0.00 0.00 58 1015.3
20260901201123 93 326 3.0 8.0 0.00 0.00 0.00 58 1015.4
20260901200651 93 281 1.0 8.0 0.00 0.00 0.00 58 1015.5
20260901200140 93 307 3.0 9.0 0.00 0.00 0.00 57 1015.5
20260901195644 94 318 3.0 10.0 0.00 0.00 0.00 57 1015.4
20260901195152 94 299 4.0 10.0 0.00 0.00 0.00 56 1015.5
20260901194620 94 287 2.0 5.0 0.00 0.00 0.00 58 1015.6
20260901194128 93 295 2.0 6.0 0.00 0.00 0.00 58 1015.8
20260901193617 94 340 1.0 10.0 0.00 0.00 0.00 56 1015.7
20260901193145 94 306 3.0 10.0 0.00 0.00 0.00 55 1015.8
20260901192633 93 301 3.0 7.0 0.00 0.00 0.00 57 1015.8
20260901190625 94 290 2.0 9.0 0.00 0.00 0.00 58 1016.1
20260901190114 93 301 2.0 8.0 0.00 0.00 0.00 58 1016.1
20260901185619 93 287 2.0 10.0 0.00 0.00 0.00 57 1016.1
20260901185148 93 317 3.0 10.0 0.00 0.00 0.00 56 1016.2
20260901184635 94 346 2.0 8.0 0.00 0.00 0.00 55 1016.4
20260901184124 95 345 2.0 8.0 0.00 0.00 0.00 56 1016.4
20260901183632 94 301 3.0 8.0 0.00 0.00 0.00 56 1016.3
20260901183122 94 293 3.0 8.0 0.00 0.00 0.00 56 1016.3
20260901182632 93 338 2.0 8.0 0.00 0.00 0.00 57 1016.3
20260901182119 93 8 0.0 5.0 0.00 0.00 0.00 59 1016.1
20260901181629 93 59 0.0 10.0 0.00 0.00 0.00 59 1016.2
20260901181118 93 286 1.0 10.0 0.00 0.00 0.00 59 1016.3
20260901180628 92 273 2.0 7.0 0.00 0.00 0.00 60 1016.3
20260901180117 92 314 1.0 9.0 0.00 0.00 0.00 62 1016.1
20260901175646 92 344 0.0 9.0 0.00 0.00 0.00 61 1016.1
20260901175114 92 338 0.0 11.0 0.00 0.00 0.00 63 1016.3
20260901174642 92 303 2.0 11.0 0.00 0.00 0.00 62 1016.4
20260901174125 91 7 0.0 3.0 0.00 0.00 0.00 65 1016.4
20260901173633 90 293 0.0 4.0 0.00 0.00 0.00 64 1016.4
20260901173122 90 332 1.0 7.0 0.00 0.00 0.00 64 1016.5
20260901172630 90 281 2.0 7.0 0.00 0.00 0.00 63 1016.5
20260901172119 90 337 1.0 5.0 0.00 0.00 0.00 64 1016.5
20260901171628 90 37 1.0 7.0 0.00 0.00 0.00 63 1016.4
20260901171116 91 355 1.0 7.0 0.00 0.00 0.00 61 1016.4
20260901170626 92 284 3.0 7.0 0.00 0.00 0.00 62 1016.4
20260901170115 91 311 0.0 3.0 0.00 0.00 0.00 66 1016.5
20260901165625 89 225 0.0 3.0 0.00 0.00 0.00 69 1016.5
20260901165113 88 28 0.0 3.0 0.00 0.00 0.00 68 1016.7
20260901164622 88 12 0.0 3.0 0.00 0.00 0.00 69 1016.8
20260901164131 88 321 0.0 0.0 0.00 0.00 0.00 67 1017.1
20260901163640 88 318 0.0 3.0 0.00 0.00 0.00 67 1017.1
20260901163129 88 313 2.0 6.0 0.00 0.00 0.00 65 1017.2
20260901162617 88 288 2.0 6.0 0.00 0.00 0.00 65 1017.2
20260901162126 88 310 2.0 7.0 0.00 0.00 0.00 64 1017.2
20260901161614 89 311 2.0 8.0 0.00 0.00 0.00 63 1017.2
20260901161123 90 300 2.0 8.0 0.00 0.00 0.00 63 1017.3
20260901160633 90 264 1.0 6.0 0.00 0.00 0.00 63 1017.2
20260901160121 90 325 0.0 5.0 0.00 0.00 0.00 62 1017.2
20260901155626 90 297 1.0 6.0 0.00 0.00 0.00 62 1017.4
20260901155116 90 286 1.0 6.0 0.00 0.00 0.00 63 1017.3
20260901154625 90 318 1.0 7.0 0.00 0.00 0.00 63 1017.5
20260901154133 90 271 1.0 7.0 0.00 0.00 0.00 63 1017.5
20260901153622 90 266 2.0 5.0 0.00 0.00 0.00 64 1017.6
20260901153130 89 305 2.0 8.0 0.00 0.00 0.00 63 1017.6
20260901152620 90 305 4.0 11.0 0.00 0.00 0.00 63 1017.6
20260901152129 91 306 5.0 11.0 0.00 0.00 0.00 61 1017.7
20260901151618 91 318 2.0 7.0 0.00 0.00 0.00 62 1017.7
20260901151126 90 291 3.0 7.0 0.00 0.00 0.00 64 1017.7
20260901150615 89 329 4.0 8.0 0.00 0.00 0.00 66 1017.7
20260901150124 89 208 2.0 8.0 0.00 0.00 0.00 65 1017.7
20260901145631 90 300 3.0 9.0 0.00 0.00 0.00 63 1017.7
20260901145120 90 317 1.0 9.0 0.00 0.00 0.00 65 1017.7
20260901144630 89 286 4.0 9.0 0.00 0.00 0.00 66 1017.6
20260901144137 88 279 3.0 8.0 0.00 0.00 0.00 67 1017.5
20260901143626 88 16 2.0 8.0 0.00 0.00 0.00 68 1017.6
20260901143153 87 273 3.0 9.0 0.00 0.00 0.00 69 1017.6
20260901142621 86 336 2.0 9.0 0.00 0.00 0.00 70 1017.7
20260901142126 86 305 3.0 9.0 0.00 0.00 0.00 69 1017.7
20260901141635 86 260 3.0 9.0 0.00 0.00 0.00 71 1017.7
20260901141144 85 328 2.0 7.0 0.00 0.00 0.00 72 1017.7
20260901140630 84 298 3.0 10.0 0.00 0.00 0.00 74 1017.8
20260901140119 84 299 4.0 10.0 0.00 0.00 0.00 74 1017.6
20260901135628 84 301 2.0 7.0 0.00 0.00 0.00 75 1017.6
20260901135117 83 310 1.0 4.0 0.00 0.00 0.00 77 1017.7
20260901134624 82 305 1.0 4.0 0.00 0.00 0.00 77 1017.9
20260901134133 82 302 0.0 4.0 0.00 0.00 0.00 77 1017.7
20260901133622 83 328 2.0 6.0 0.00 0.00 0.00 75 1017.7
20260901133131 83 275 2.0 6.0 0.00 0.00 0.00 76 1017.6
20260901132619 82 312 0.0 5.0 0.00 0.00 0.00 77 1017.5
20260901132148 82 309 1.0 8.0 0.00 0.00 0.00 77 1017.6
20260901131616 82 279 2.0 8.0 0.00 0.00 0.00 77 1017.8
20260901131124 82 301 1.0 8.0 0.00 0.00 0.00 77 1017.9
20260901130633 82 295 3.0 8.0 0.00 0.00 0.00 75 1017.9
20260901130123 83 258 0.0 7.0 0.00 0.00 0.00 76 1017.8
20260901125628 83 278 2.0 7.0 0.00 0.00 0.00 77 1017.8
20260901125117 82 309 0.0 2.0 0.00 0.00 0.00 80 1018.0
20260901124624 80 165 0.0 3.0 0.00 0.00 0.00 81 1018.1
20260901124133 80 165 0.0 3.0 0.00 0.00 0.00 80 1018.3
20260901123623 80 165 0.0 4.0 0.00 0.00 0.00 81 1018.2
20260901123131 80 165 1.0 5.0 0.00 0.00 0.00 82 1018.2
20260901122619 79 317 1.0 5.0 0.00 0.00 0.00 84 1018.3
20260901122130 78 286 0.0 1.0 0.00 0.00 0.00 86 1018.3
20260901121617 78 322 0.0 1.0 0.00 0.00 0.00 86 1018.2
20260901121126 78 315 0.0 1.0 0.00 0.00 0.00 86 1018.2
20260901120654 78 324 0.0 2.0 0.00 0.00 0.00 86 1018.0
20260901120123 78 263 0.0 2.0 0.00 0.00 0.00 87 1017.9
20260901115653 77 342 0.0 1.0 0.00 0.00 0.00 88 1017.9
20260901115119 77 312 0.0 3.0 0.00 0.00 0.00 89 1017.7
20260901114628 76 300 0.0 3.0 0.00 0.00 0.00 90 1017.6
20260901114117 76 299 0.0 3.0 0.00 0.00 0.00 92 1017.6
20260901113626 75 324 0.0 1.0 0.00 0.00 0.00 92 1017.7
20260901113114 75 324 0.0 0.0 0.00 0.00 0.00 92 1017.6
20260901112624 74 324 0.0 0.0 0.00 0.00 0.00 92 1017.6
20260901112127 74 324 0.0 0.0 0.00 0.00 0.00 92 1017.6
20260901111617 73 324 0.0 0.0 0.00 0.00 0.00 92 1017.6
20260901111127 73 324 0.0 0.0 0.00 0.00 0.00 93 1017.7
20260901110616 73 324 0.0 0.0 0.00 0.00 0.00 93 1017.7
20260901110126 73 324 0.0 0.0 0.00 0.00 0.00 93 1017.7
20260901105633 73 324 0.0 0.0 0.00 0.00 0.00 93 1017.7
20260901105122 73 324 0.0 0.0 0.00 0.00 0.00 93 1017.8
20260901104632 73 324 0.0 0.0 0.00 0.00 0.00 93 1017.7
20260901104120 73 324 0.0 0.0 0.00 0.00 0.00 93 1017.5
20260901103630 73 324 0.0 0.0 0.00 0.00 0.00 93 1017.6
20260901103118 73 324 0.0 0.0 0.00 0.00 0.00 93 1017.5
20260901102629 73 324 0.0 0.0 0.00 0.00 0.00 93 1017.5
20260901102118 73 324 0.0 0.0 0.00 0.00 0.00 93 1017.4
20260901101627 73 324 0.0 0.0 0.00 0.00 0.00 93 1017.5
20260901101116 73 324 0.0 0.0 0.00 0.00 0.00 93 1017.5
20260901100624 73 324 0.0 0.0 0.00 0.00 0.00 93 1017.5
20260901100133 73 324 0.0 0.0 0.00 0.00 0.00 93 1017.5
20260901095623 73 324 0.0 0.0 0.00 0.00 0.00 93 1017.6
20260901095133 73 324 0.0 0.0 0.00 0.00 0.00 93 1017.5
20260901094621 73 324 0.0 0.0 0.00 0.00 0.00 92 1017.6
20260901094131 73 324 0.0 0.0 0.00 0.00 0.00 92 1017.3
20260901093620 73 324 0.0 0.0 0.00 0.00 0.00 92 1017.4
20260901093145 74 324 0.0 0.0 0.00 0.00 0.00 92 1017.5
20260901092633 73 324 0.0 0.0 0.00 0.00 0.00 92 1017.4
20260901092142 73 324 0.0 0.0 0.00 0.00 0.00 92 1017.4
20260901091630 73 324 0.0 0.0 0.00 0.00 0.00 92 1017.5
20260901091139 73 324 0.0 0.0 0.00 0.00 0.00 92 1017.6
20260901090627 73 324 0.0 0.0 0.00 0.00 0.00 92 1017.6
20260901090116 73 324 0.0 0.0 0.00 0.00 0.00 92 1017.6
20260901085625 73 324 0.0 0.0 0.00 0.00 0.00 93 1017.7
20260901085114 73 324 0.0 0.0 0.00 0.00 0.00 92 1017.7
20260901084624 73 324 0.0 0.0 0.00 0.00 0.00 92 1017.7
20260901084152 73 324 0.0 0.0 0.00 0.00 0.00 92 1017.7
20260901083621 73 324 0.0 0.0 0.00 0.00 0.00 92 1017.7
20260901083129 73 324 0.0 0.0 0.00 0.00 0.00 92 1017.8
20260901082619 73 324 0.0 0.0 0.00 0.00 0.00 92 1017.7
20260901082129 73 324 0.0 0.0 0.00 0.00 0.00 91 1017.5
20260901081618 73 324 0.0 0.0 0.00 0.00 0.00 90 1017.5
20260901081126 73 324 0.0 0.0 0.00 0.00 0.00 90 1017.5
20260901080616 73 324 0.0 0.0 0.00 0.00 0.00 90 1017.5
20260901080121 73 324 0.0 0.0 0.00 0.00 0.00 90 1017.5
20260901075630 73 324 0.0 0.0 0.00 0.00 0.00 90 1017.6
20260901075119 73 324 0.0 0.0 0.00 0.00 0.00 91 1017.6
20260901074629 73 324 0.0 0.0 0.00 0.00 0.00 90 1017.6
20260901074139 73 324 0.0 0.0 0.00 0.00 0.00 89 1017.5
20260901073628 73 324 0.0 0.0 0.00 0.00 0.00 89 1017.6
20260901073116 74 324 0.0 0.0 0.00 0.00 0.00 89 1017.6
20260901072624 74 324 0.0 0.0 0.00 0.00 0.00 89 1017.7
20260901072133 73 324 0.0 0.0 0.00 0.00 0.00 90 1018.0
20260901071626 73 324 0.0 0.0 0.00 0.00 0.00 90 1018.0
20260901071115 73 324 0.0 0.0 0.00 0.00 0.00 90 1018.1
20260901070622 73 324 0.0 0.0 0.00 0.00 0.00 91 1018.0
20260901070131 73 324 0.0 0.0 0.00 0.00 0.00 91 1018.0
20260901065621 73 324 0.0 0.0 0.00 0.00 0.00 91 1018.2
20260901065131 73 324 0.0 0.0 0.00 0.00 0.00 90 1018.3
20260901064620 74 324 0.0 0.0 0.00 0.00 0.00 90 1018.3
20260901064129 74 324 0.0 0.0 0.00 0.00 0.00 90 1018.4
20260901063618 74 324 0.0 0.0 0.00 0.00 0.00 90 1018.5
20260901063146 74 324 0.0 0.0 0.00 0.00 0.00 90 1018.5
20260901062647 74 324 0.0 0.0 0.00 0.00 0.00 90 1018.5
20260901062116 74 324 0.0 0.0 0.00 0.00 0.00 89 1018.5
20260901061645 74 324 0.0 0.0 0.00 0.00 0.00 90 1018.5
20260901061113 74 324 0.0 0.0 0.00 0.00 0.00 90 1018.6
20260901060642 74 324 0.0 0.0 0.00 0.00 0.00 90 1018.6
20260901060131 74 324 0.0 0.0 0.00 0.00 0.00 90 1018.5
20260901055621 74 324 0.0 0.0 0.00 0.00 0.00 89 1018.5
20260901055128 74 324 0.0 0.0 0.00 0.00 0.00 90 1018.4
20260901054638 74 324 0.0 0.0 0.00 0.00 0.00 90 1018.6
20260901054126 74 324 0.0 0.0 0.00 0.00 0.00 90 1018.6
20260901053615 74 324 0.0 0.0 0.00 0.00 0.00 91 1018.5
20260901053124 74 324 0.0 0.0 0.00 0.00 0.00 91 1018.8
20260901052614 74 324 0.0 0.0 0.00 0.00 0.00 91 1018.8
20260901052124 74 324 0.0 0.0 0.00 0.00 0.00 91 1018.8
20260901051632 74 324 0.0 0.0 0.00 0.00 0.00 90 1018.8
20260901051122 74 324 0.0 0.0 0.00 0.00 0.00 90 1018.8
20260901050644 74 324 0.0 0.0 0.00 0.00 0.00 90 1018.9